Tracking 20093 objects as of 14-Dec-2019
HD Live streaming from Space Station
objects crossing your sky now

AUREOLE 2

Track AUREOLE 2 now!
10-day predictions
AUREOLE 2 is classified as:


NORAD ID: 7003
Int'l Code: 1973-107A
Perigee: 373.8 km
Apogee: 910.2 km
Inclination: 73.9 °
Period: 97.4 minutes
Semi major axis: 7012 km
RCS: 2.1042 m2 (large)
Launch date: December 26, 1973
Source: France (FR)
Launch site: PLESETSK MISSILE AND SPACE COMPLEX (PKMTR)
aabbcc
Your satellite tracking list
Your tracking list is empty




NASA's NSSDC Master Catalog

Two Line Element Set (TLE):
1  7003U 73107A   19348.19303769  .00001125  00000-0  46020-4 0  9996
2  7003  73.9262  25.8923 0382440 165.7791 195.4529 14.78248636347713
Source of the keplerian elements: AFSPC